www.pogodaiklimat.ru

Погода и климат >> Архив погоды >> Ирак >> Azizyah


ПОГОДА в Azizyah

  • Прогноз погоды в Azizyah
  • Монитор погоды в Azizyah
  • Климат города

АРХИВ ПОГОДЫ в Azizyah

Время (UTC), дата Ветер
(напр.,м/с)
 
Видим.   Явления Облачность Т
(С)
Тd
(С)
f
(%)
Тe
(С)
Тes
(С)
Комфортность P
(гПа)
Po
(гПа)
Тmin
(С)
Tmax
(С)
R
(мм)
R24
(мм)
S
(см)
09 13.06 СЗ 1 10 км ясно +40.0 +12.3 19 +39 +65 опасность
солнечного
удара
999.7 1000.0
12 13.06 штиль 0 10 км 1/1 1050 м
[Cu hum]
+41.6 +13.6 19 +42 +57 опасность
перегрева
999.2 999.0
15 13.06 штиль 0 10 км ясно +40.0 +20.2 32 +45 +47 опасность
перегрева
999.0 999.0
18 13.06 С 2 10 км ясно +35.0 +25.2 57 +49 +49 опасность
перегрева
998.8 999.0 +42.0
21 13.06 С 2 10 км ясно +31.0 +26.8 78 +48 +48 опасность
перегрева
998.9 999.0
00 14.06 СВ 2 10 км ясно +30.0 +27.2 85 +48 +48 опасность
перегрева
998.6 999.0
03 14.06 Ю 2 10 км ясно +26.4 +18.7 63 +31 +32 душно 998.7 999.0
06 14.06 Ю 1 5000 м пыль ясно +33.0 +16.2 37 +36 +51 опасность
солнечного
удара
999.6 1000.0 +24.5
09 14.06 З 1 6000 м пыль ясно +39.0 +13.1 22 +39 +65 опасность
солнечного
удара
998.6 999.0
12 14.06 СЗ 11 6000 м пыльный позёмок ясно +40.6 +12.3 19 +40 +40 очень
жарко
999.0 999.0
18 14.06 СЗ 2 10 км ясно +34.0 +17.0 36 +37 +37 очень
душно
1001.7 1002.0 +41.2
00 15.06 С 1 10 км ясно +28.0 +14.0 42 +30 +30 жарко 1001.8 1002.0
03 15.06 СЗ 1 10 км ясно +29.0 +16.1 46 +32 +33 душно 1003.7 1004.0
09 15.06 З 5 10 км ясно +38.7 +15.1 25 +40 +51 опасность
солнечного
удара
1004.7 1005.0
15 15.06 СЗ 3 10 км ясно +38.5 +13.5 23 +39 +40 душно 1003.5 1004.0
21 15.06 С 2 10 км ясно +31.2 +14.8 37 +33 +33 жарко 1004.4 1004.0
21 16.06 С 3 10 км ясно +32.5 +10.6 26 +32 +32 жарко 1005.6 1006.0
00 17.06 СЗ 4 10 км ясно +29.2 +13.0 37 +31 +31 жарко 1005.1 1005.0
03 17.06 СЗ 3 10 км ясно +27.4 +14.0 44 +30 +30 жарко 1005.6 1006.0
06 17.06 СЗ 2 10 км ясно +35.8 +19.6 39 +41 +54 опасность
перегрева
1005.4 1005.0 +26.6
09 17.06 СЗ 3 10 км ясно +40.2 +20.1 31 +45 +63 опасность
перегрева
1004.0 1004.0
12 17.06 СЗ 6 8000 м пыль ясно +42.0 +18.7 26 +39 +44 очень
жарко
1004.1 1004.0
15 17.06 8000 м пыль 4/0
[]
+41.0 +16.4 24 1004.5 1005.0
18 17.06 СЗ 2 10 км ясно +34.2 +14.5 31 +36 +36 душно 1003.9 1004.0 +42.8
21 17.06 СЗ 2 10 км ясно +31.4 +16.5 41 +35 +35 очень
душно
1003.6 1004.0
00 18.06 СЗ 2 10 км ясно +29.0 +14.1 40 +31 +31 жарко 1003.4 1003.0
03 18.06 СЗ 1 10 км ясно +28.0 +13.8 42 +30 +31 жарко 1003.3 1003.0
06 18.06 С 3 6000 м пыль ясно +36.0 +9.9 20 +35 +45 очень
жарко
1003.8 1004.0 +26.8
09 18.06 СЗ 3 6000 м пыль ясно +40.2 +14.2 22 +41 +59 опасность
перегрева
1003.1 1003.0
12 18.06 СЗ 4 8000 м пыль ясно +41.2 +13.4 20 +41 +50 опасность
перегрева
1002.5 1003.0
15 18.06 СЗ 4 8000 м пыль ясно +38.4 +15.0 25 +39 +40 очень
душно
1002.7 1003.0
18 18.06 СЗ 3 10 км ясно +34.3 +13.3 28 +35 +35 очень
жарко
1003.4 1003.0 +41.8
21 18.06 СЗ 3 10 км ясно +31.4 +11.6 30 +32 +32 жарко 1003.3 1003.0
00 19.06 С 2 10 км ясно +26.4 +11.8 40 +28 +28 жарко 1003.3 1003.0
03 19.06 С 1 10 км ясно +24.8 +12.7 47 +27 +28 жарко 1004.6 1005.0
06 19.06 С 3 10 км ясно +35.2 +14.7 29 +36 +47 очень
жарко
1006.0 1006.0 +23.8
12 19.06 С 6 7000 м пыль ясно +39.8 +13.5 21 +40 +45 очень
душно
1005.1 1005.0
15 19.06 СЗ 5 8000 м пыль ясно +38.8 +11.2 19 +38 +38 очень
жарко
1004.9 1005.0
18 19.06 З 2 10 км ясно +33.8 +11.2 25 +33 +33 жарко 1004.9 1005.0 +40.6
21 19.06 З 2 10 км ясно +28.8 +12.4 36 +30 +30 жарко 1006.2 1006.0
00 20.06 СЗ 2 10 км ясно +26.8 +11.4 38 +28 +28 жарко 1006.0 1006.0
03 20.06 СЗ 2 10 км ясно +25.1 +12.0 44 +27 +28 жарко 1006.6 1007.0
06 20.06 С 3 10 км ясно +37.6 +11.7 21 +37 +48 очень
жарко
1007.4 1007.0 +24.8

 

Местоположение метеостанции Azizyah (Ирак): широта 32.92 долгота 45.07 высота над уровнем моря 25 м.

В архиве по умолчанию представлена погода в Azizyah за последнюю неделю. Архивные данные за месяц целиком и за предыдущие месяцы, начиная с января 2011 года, Вы можете получить, выбрав интересующий диапазон дат из раскрывающегося списка и нажав кнопку "Ввод!".


*Определитесь, кто Вы:
робот инопланетянин человек

Внимание! Время в таблицах - всемирное. Для получения местного времени необходимо прибавить поправку, которая в Azizyah равна 3 ч.

Смотрите также архив погоды в соседних городах и на ближайших метеорологических станциях:

Погода в Ayn Al-Tamar (Ирак) (77 км)
Погода в Hella (Ирак) (78 км)
Погода в Ubaydah Bin Al Jarrah (Ирак) (80 км)
Погода в Badrah (Ирак) (84 км)
Погода в Baghdad (Ирак) (86 км)
Погода в Karbalaa (Ирак) (104 км)
Погода в Diwaniya (Ирак) (105 км)
Погода в Al-Khalis (Ирак) (113 км)
Погода в Kut-Al-Hai (Ирак) (124 км)
Погода в Najaf (Ирак) (126 км)

Пояснения к столбцам:

Ветер - указаны скорость ветра в м/с - средняя за 10 мин, порывы в срок и между сроками (в фигурных скобках) и направление, откуда дует ветер: С - северный, СВ - северо-восточный, В - восточный, ЮВ - юго-восточный, Ю - южный, ЮЗ - юго-западный, З - западный, СЗ - северо-западный.
Видимость - горизонтальная дальность видимости в метрах или километрах. При видимости от 1 до 10 км при отсутствии осадков обычно наблюдается дымка, при ухудшении видимости до 1 км и менее - туман. В сухую погоду видимость может ухудшаться дымом, пылью или мглою.
Явления - указаны атмосферные явления, наблюдавшиеся в срок или в последний час перед сроком; фигурными скобками обозначены явления, наблюдавшиеся между сроками (за 1-3 часа до срока); квадратными скобками обозначены град или гололедные отложения с указанием их диаметра в мм.
Облачность - указаны через наклонную черту общая и нижняя облачность в баллах и высота нижней границы облаков в метрах; квадратными скобками обозначены формы облаков: Ci - перистые, Cs - перисто-слоистые, Cc - перисто-кучевые, Ac - высококучевые, As - высокослоистые, Sc - слоисто-кучевые, Ns - слоисто-дождевые, Cu - кучевые, Cb - кучево-дождевые. Подробнее классификацию облаков см. в Атласе облаков (PDF).
T - Температура воздуха - температура, измеренная на высоте 2 м над землей.
Td - Температура точки росы - температура, при понижении до которой содержащийся в воздухе водяной пар достигнет насыщения.
f - Относительная влажность воздуха - влажноcть воздуха, измеренная на высоте 2 м над землей.
Te - Эффективная температура - температура, которую ощущает одетый по сезону человек в тени. Характеристика душности погоды. При расчете учитывается влияние влажности воздуха и скорости ветра на теплоощущения человека.
Tes - Эффективная температура на солнце - температура, которую ощущает человек, с поправкой на солнечный нагрев. Характеристика знойности погоды. Зависит от высоты солнца над горизонтом, облачности и скорости ветра. Ночью, в пасмурную погоду, а также при ветре 12 м/с и более поправка равна нулю.
P - Атмосферное давление - приведенное к уровню моря атмосферное давление.
Po - Атмосферное давление - измеренное на уровне метеостанции атмосферное давление.
Tmin - Минимальная температура - минимум температуры воздуха на высоте 2 м над землей.
Tmax - Максимальная температура - максимум температуры воздуха на высоте 2 м над землей.
R - Количество осадков - Количество выпавших осадков за период времени, мм. При наведении курсора мыши на число - период времени, за который выпало указанное количество осадков.
R24 - Количество осадков - Количество выпавших осадков за 24 часа, мм.
S - Снежный покров - Высота снежного покрова, см. При наведении курсора мыши на число - состояние снежного покрова и степень покрытия местности в баллах.